STARLINK-31179, 58750

Orbit data source: Space-Track

STARLINK-31179, 58750 is a payload satellite owned by SpaceX/Seattle (US) in LEO that was launched on Sun, 07 Jan 2024 UTC via an FALCON 9 launch vehicle from the Air Force Eastern Test Range (AFETR). Payload-class satellites include a variety of spacecraft equipped with specific instruments for various scientific and technological missions. These include communications satellites like Starlink; space stations such as the ISS; scientific satellites like the Hubble; Earth observation satellites from companies like Planet Labs, Umbra, and HawkEye 360; GPS; miniature CubeSats for education and research; and military/defense satellites.

Loading next visibility...
Identifier
58750, 2024-005Y
Orbit
LEO
Country
Flag of USUS
Related business
Manufacturer
SpaceX/Seattle
Mission
Operational Commercial Communications
Bus & Motor
STARLINK V2M, Unknown motor
Mass
730 kg wet, ~700 kg dry
Launch date (UTC)
2024-01-07 (2 years ago)
Launch vehicle
FALCON 9
Launch site
Air Force Eastern Test Range (AFETR)
Object type
Payload
Rocket body
Debris
Shape & HBR
Box + 2 Pan, 17.7 m
Radar Cross Section
33.884 m², Large (>1 m²)

Expand to show TLE details & history
Last TLE update: 3 days ago

TLE from 3 days ago
0 STARLINK-31179
1 58750U 24005Y   26170.57737872 -.00000245  00000-0  63147-6 0  9997
2 58750  43.0055   4.5576 0001258 260.9007  99.1703 15.27574282136025
Epoch: 2026-06-19T13:51Z
TLE epoch observation values (Epoch: 2026-06-19T13:51:25.521Z)
Latitude
0.00003°
Longitude
-111.10307°
Altitude
482.98 km
Speed
7.626 km/s
True Right ascension
00h 18m 13s
True Declination
0° 00' 00"
Sunlit
Object was in daylight at epoch
Visualization orbit readout
Latitude
Unknown
Longitude
Unknown
Altitude
Unknown
Speed
Unknown
Apparent Right ascension
Unknown
Apparent Declination
Unknown
Sunlit
N/A
Visualization observer readout
Local Sidereal Time
21:32:33
Azimuth
Unknown
Elevation
Unknown
Doppler factor
Unknown
Orbital elements
Apogee altitude
485.874 km
Perigee altitude
484.147 km
Semi-major axis
6,863.147 km
Eccentricity
0.00013
Inclination
43.0055°
RAAN
4.5576°
Arg. of periapsis
260.9007°
True anomaly
99.18453°
Mean anomaly
99.1703°
Eccentric anomaly
99.17742°
Mean motion
3.81732 °/min
Orbital period
94.31 mins
BSTAR
6.3147e-7
Loading maneuver chart data...
Computing Atmospheric mass density...
Loading historical data...
Loading historical data...
Loading historical data...
Loading historical data...
Loading historical data...
Loading historical data...
Loading historical data...

Documentation

Showing up to 5 results
|